RH
8 9 10 12 13 17 20 22 21 21 21 21 20 18 25 27 25 28 33 33 33 39 41 44 48 46 45 51 53 52 56 57 59 63 70 77 74 75 75 71 73 74 74 72 73 74 74 70 66 66 68 66 63 63 63 64 64 64 62 59 56 54 54 54 57 58 58 59 59 60 60 60 60 60 58 59 61 62 63 63 63 63 64 65 68 70 69 68 67 67 65 64 62 62 64 63 59
8 10 11 13 15 20 22 22 21 22 22 21 21 25 33 32 29 33 34 35 37 38 37 40 44 45 48 51 51 51 56 58 59 62 67 72 72 73 72 70 72 70 69 70 74 76 72 67 66 69 71 69 66 67 68 67 66 66 63 57 55 55 56 58 59 60 60 59 59 59 60 61 62 63 62 62 63 63 63 62 62 63 63 65 67 68 67 67 66 64 63 63 61 61 63 64 63
9 12 13 16 19 21 21 21 21 21 19 17 22 30 33 35 37 36 35 37 38 36 32 34 42 47 52 53 53 54 57 61 60 62 66 71 73 73 71 69 70 70 69 69 72 72 68 65 67 72 73 70 69 71 71 69 68 66 62 58 58 60 61 62 60 59 59 58 58 60 61 62 63 64 64 63 62 62 61 60 60 61 61 62 62 61 61 60 62 61 60 61 61 61 63 65 65
11 14 15 19 21 21 20 21 21 19 18 15 21 30 32 37 40 36 37 38 36 34 34 40 47 51 54 55 57 56 60 63 61 62 66 69 70 73 73 70 71 70 68 69 70 70 67 68 71 73 73 71 71 72 71 69 66 63 59 59 61 62 62 60 58 56 56 57 59 60 61 62 63 63 63 62 61 60 60 59 58 58 58 58 56 55 54 55 58 59 57 58 59 59 61 63 62
13 14 16 21 22 20 20 22 22 19 20 17 22 32 33 37 39 38 40 38 37 39 43 48 51 54 56 58 58 58 61 63 60 60 63 66 66 70 69 67 69 69 68 70 72 71 70 73 74 72 70 69 69 68 66 64 61 58 57 59 59 59 57 55 54 54 56 58 59 59 60 61 61 61 61 61 61 60 61 60 58 57 57 56 54 53 52 53 55 56 56 56 55 56 57 55 55
13 13 16 19 19 18 18 20 21 20 22 19 23 32 33 34 39 41 38 34 37 44 47 50 53 55 59 60 59 60 60 60 59 59 61 64 65 66 65 66 68 69 69 71 72 73 74 73 72 69 68 66 65 63 61 58 57 56 57 58 56 55 53 53 53 54 57 58 58 58 58 59 60 59 60 60 59 59 60 60 59 57 56 56 54 52 52 52 53 54 53 53 53 53 52 50 49
13 15 16 15 15 15 15 17 17 20 25 25 29 36 34 35 40 40 37 35 40 46 47 51 54 56 60 59 60 61 60 59 60 60 62 65 67 65 66 70 72 71 70 72 73 73 73 71 68 67 66 64 62 59 58 57 56 56 56 55 54 53 52 52 53 56 57 57 58 59 59 60 60 59 59 58 58 58 59 59 58 57 56 55 53 52 52 51 50 49 49 50 51 50 49 48 46
13 16 17 15 17 18 18 17 16 18 25 30 31 35 35 35 40 40 40 41 45 49 50 53 53 55 61 59 61 64 62 62 61 60 64 67 69 68 67 71 73 71 71 73 74 71 69 67 66 65 63 62 59 57 57 57 57 56 56 55 55 54 54 56 58 60 60 60 59 60 62 63 61 59 58 56 56 56 57 56 56 56 55 55 53 53 52 49 46 44 44 45 48 48 48 47 44
14 17 16 16 19 22 21 21 20 20 27 33 30 31 32 33 37 39 43 47 47 50 54 55 53 56 63 61 63 67 67 66 62 61 65 67 69 69 68 70 73 72 74 76 74 69 65 65 64 63 62 60 58 58 57 58 58 58 59 58 58 58 59 61 62 62 61 61 61 62 63 63 61 59 58 56 55 54 54 54 54 54 54 54 53 51 49 47 45 42 40 40 44 47 47 45 43
15 16 16 17 19 19 18 24 28 25 29 32 30 31 28 31 35 36 44 48 48 52 58 58 56 59 61 61 64 67 69 65 63 62 64 66 66 66 65 67 73 74 75 76 74 70 66 66 65 62 61 59 59 59 59 60 61 62 63 61 61 61 61 62 61 60 60 59 59 61 62 62 62 60 58 54 51 50 50 50 49 49 49 49 48 46 45 44 44 41 36 35 38 41 42 42 43
14 15 15 17 20 20 18 25 29 29 35 33 31 32 27 31 36 40 47 49 52 56 61 62 62 62 60 64 68 69 69 65 64 63 62 64 62 64 67 68 72 74 75 75 76 74 70 69 65 63 61 60 61 62 63 63 64 64 63 61 59 60 60 59 57 56 55 55 57 58 60 60 59 56 52 49 47 47 46 46 45 44 44 45 45 45 45 45 44 42 39 37 36 37 39 42 44
16 19 18 17 17 18 21 26 26 29 38 37 35 34 30 33 39 49 57 59 62 62 63 64 65 64 63 68 72 70 68 66 65 63 62 64 64 68 70 69 73 76 76 77 76 75 74 71 67 65 62 62 64 66 66 64 65 63 61 60 58 58 57 54 52 51 51 52 54 54 55 55 53 49 48 48 46 46 46 46 46 45 45 46 46 46 46 44 44 43 43 42 42 41 42 44 46
17 23 23 21 15 15 22 23 21 23 33 36 35 35 34 37 44 52 57 62 66 63 65 67 65 64 64 69 70 68 67 66 65 65 66 66 69 73 71 70 76 80 80 79 78 76 75 73 69 66 64 65 66 66 65 63 63 62 60 59 59 57 54 51 49 48 48 49 49 48 48 49 49 48 48 47 46 46 47 45 45 43 42 42 43 43 41 39 38 38 38 39 40 40 40 42 44
18 22 21 20 16 15 19 21 20 26 37 38 36 37 39 44 50 54 55 59 63 64 65 68 68 65 65 67 67 67 67 67 66 67 67 65 69 73 72 71 72 78 82 80 78 77 77 77 73 68 67 68 69 66 63 62 61 60 59 58 57 55 53 51 49 49 48 47 47 46 47 49 50 52 52 50 47 46 44 42 39 37 35 35 36 36 35 34 33 32 32 32 33 34 36 37 38
18 20 17 16 15 16 22 23 23 33 43 42 42 42 43 50 53 54 54 58 64 65 63 64 64 61 61 62 62 65 65 66 66 64 64 66 68 70 70 67 65 69 72 74 76 78 80 80 76 72 71 71 71 68 64 63 61 60 58 57 56 54 53 52 50 50 50 49 49 49 50 53 55 55 54 51 48 43 39 37 34 32 31 31 31 32 32 32 32 32 31 31 31 33 33 34 36
13 15 14 14 17 24 30 30 29 37 44 44 46 46 46 53 51 51 54 58 62 62 61 61 60 57 54 55 58 60 60 61 63 62 65 70 71 72 70 65 63 63 63 66 71 78 81 80 77 74 73 72 71 70 68 67 63 61 60 59 56 53 52 52 51 51 52 53 54 54 53 53 54 52 50 49 48 41 37 35 33 32 31 31 31 31 31 32 33 32 32 32 32 33 32 33 37
13 15 18 19 24 33 36 35 39 44 46 46 48 49 50 55 55 54 55 55 58 58 58 58 60 60 56 54 54 57 55 54 58 62 67 72 74 76 73 69 67 63 63 65 67 73 80 80 77 73 71 73 72 68 68 69 65 63 62 60 56 55 54 51 51 52 53 54 53 53 50 49 50 50 49 47 46 42 38 37 35 34 33 32 33 32 31 31 32 31 31 32 31 31 32 34 39
16 20 24 27 31 38 41 40 44 46 50 51 51 53 51 53 57 59 58 55 57 57 55 54 58 60 59 55 51 53 53 52 55 58 63 68 72 77 77 73 70 66 67 70 69 71 74 77 76 71 69 71 69 67 68 68 65 61 61 62 57 57 58 53 50 50 51 49 49 49 49 49 50 50 47 43 44 43 41 40 38 36 36 35 34 33 33 31 31 30 31 31 31 35 36 37 41
20 25 26 33 39 43 46 45 44 45 49 49 50 53 52 51 53 57 59 57 54 54 54 53 56 58 57 56 53 53 55 56 56 58 66 71 75 81 77 72 71 72 74 73 70 69 69 70 71 69 66 68 69 69 68 66 62 58 57 56 52 52 53 52 49 47 47 47 49 49 48 49 50 50 48 44 45 44 43 42 39 37 38 37 33 33 33 31 30 30 33 32 33 39 39 36 38
30 32 30 39 47 46 48 48 46 47 46 46 49 51 50 51 52 53 55 55 52 50 53 55 57 59 59 60 58 56 58 57 59 65 75 79 80 79 75 72 73 77 77 73 68 65 67 67 67 68 68 70 71 69 67 61 57 52 48 44 41 41 42 43 44 44 44 44 46 48 48 48 48 50 47 46 45 43 43 42 39 36 36 35 30 29 30 28 27 27 31 30 29 34 35 33 34
36 36 37 45 48 45 49 50 48 48 45 45 49 49 50 54 53 54 53 54 56 54 56 59 61 62 62 66 64 61 61 59 63 72 78 81 80 76 75 76 77 78 76 69 66 64 66 67 67 69 69 71 72 70 62 54 50 44 40 36 34 35 36 36 38 39 40 41 43 46 47 46 45 46 44 43 42 42 43 39 36 33 32 31 25 23 23 22 23 22 23 24 22 24 26 26 25
40 40 43 47 45 44 51 52 46 46 47 47 50 51 54 55 54 58 57 57 61 60 62 63 62 63 64 67 66 65 64 62 65 70 77 82 80 77 77 78 77 75 72 67 63 63 64 64 67 68 69 69 67 62 54 47 43 38 36 34 31 31 31 32 33 34 37 38 40 43 44 43 43 44 43 41 40 40 39 34 31 30 27 26 21 20 19 17 20 19 19 19 18 17 18 18 18
41 44 47 49 48 47 52 50 43 43 46 47 50 52 53 53 56 61 62 62 63 64 66 66 65 65 65 67 67 67 65 67 72 75 81 82 79 79 77 78 78 72 69 66 62 61 60 62 66 67 67 66 58 50 47 42 36 34 34 31 29 28 27 27 28 28 30 33 37 40 41 42 43 43 41 40 39 38 35 30 27 27 25 21 19 17 14 15 17 17 17 16 15 16 15 14 15
43 46 50 52 51 49 50 47 42 42 44 46 47 50 53 55 59 64 67 68 68 68 70 69 68 67 68 69 70 68 64 69 79 82 83 83 80 79 76 76 75 69 66 63 60 59 58 60 63 65 61 56 49 44 42 37 33 32 30 27 26 25 25 25 25 24 24 27 31 35 38 41 43 42 39 37 37 33 31 29 25 25 23 17 19 17 14 16 17 15 15 15 15 14 14 13 14
48 51 52 51 49 48 48 45 44 44 45 48 49 53 60 62 64 68 71 73 71 69 69 68 67 68 68 69 69 68 68 72 80 82 81 81 77 72 71 70 66 62 62 60 59 60 61 60 58 56 52 47 44 42 39 33 31 29 25 25 25 24 24 23 23 23 23 23 23 26 29 33 37 36 35 35 34 28 28 29 23 22 21 18 21 21 19 20 18 17 17 16 14 13 15 15 14
55 53 49 48 50 48 48 49 48 49 50 52 54 60 66 67 67 71 73 75 72 66 67 66 63 67 68 67 71 74 73 75 80 80 77 75 73 68 68 66 60 58 60 61 60 59 59 57 50 45 43 43 42 40 36 31 27 26 24 24 23 23 23 22 22 22 23 22 20 21 22 25 28 25 27 32 31 26 25 24 21 22 22 22 24 22 21 22 20 20 20 17 15 16 17 16 15
55 49 45 50 53 47 48 52 51 53 54 56 60 65 67 66 69 73 73 76 74 66 67 70 64 64 68 72 77 79 78 78 80 80 76 72 70 67 64 60 57 57 58 59 59 55 49 47 43 39 41 41 39 36 31 27 25 24 23 22 22 23 22 21 22 21 22 22 21 22 24 25 25 20 23 29 27 23 23 22 22 23 23 23 23 22 22 23 22 22 21 19 17 17 17 16 16
49 45 48 54 54 51 52 54 54 56 57 57 62 68 66 66 70 71 72 77 77 68 68 75 72 69 73 76 78 80 82 79 75 74 73 70 66 64 62 58 56 56 53 49 49 47 40 40 39 38 40 38 34 31 26 25 23 22 22 22 21 22 22 21 21 21 22 22 22 24 27 27 24 21 24 27 24 22 23 23 23 22 22 22 22 22 23 24 23 22 22 21 18 17 17 17 18
48 50 59 60 58 62 60 57 58 57 57 59 65 72 69 66 70 72 74 77 77 74 72 76 77 76 77 78 78 79 81 76 71 71 70 68 64 59 57 55 53 51 47 41 40 40 37 37 38 38 37 32 29 26 24 23 22 22 22 21 21 21 21 21 21 20 21 23 23 25 28 27 24 23 24 24 23 23 23 23 23 22 22 22 22 23 23 25 24 23 23 22 20 18 18 19 19
52 58 68 67 66 71 63 58 60 58 59 63 67 74 72 67 70 74 76 76 75 76 75 76 78 79 77 76 76 76 75 74 71 67 66 64 59 53 50 48 45 43 40 38 37 38 38 37 37 37 33 27 25 24 24 22 21 22 22 21 21 21 21 20 20 20 21 23 24 25 28 27 25 25 24 23 23 24 24 24 24 24 23 22 23 24 24 25 25 23 23 22 21 20 19 19 19
58 65 68 67 72 76 64 57 61 61 62 65 68 72 73 68 67 72 74 75 75 74 74 76 78 77 74 72 72 71 70 70 66 62 60 56 52 49 45 40 36 35 36 36 37 36 36 35 34 32 27 24 24 23 23 22 21 22 21 20 20 20 20 20 20 21 22 24 24 26 27 27 26 25 24 24 24 24 23 23 24 23 23 23 23 24 24 23 23 24 23 21 21 20 20 19 19
63 67 65 64 68 70 65 59 60 63 64 65 67 70 72 68 66 71 74 73 74 75 75 75 75 73 70 67 67 66 65 64 61 58 55 51 49 45 39 35 33 33 34 34 34 33 32 32 30 27 24 24 24 23 23 21 21 21 21 20 18 19 19 18 20 21 23 25 25 26 26 26 25 24 24 24 24 24 24 24 23 23 23 24 24 24 24 23 23 23 21 21 20 19 19 19 18
63 66 66 64 65 67 67 62 57 61 65 66 67 69 72 69 67 71 75 73 71 73 74 73 72 69 65 63 61 60 61 61 59 55 54 50 45 40 34 32 33 34 34 32 31 30 29 29 27 25 25 23 22 21 21 21 21 19 19 19 18 19 19 19 21 22 24 25 25 24 24 25 25 24 24 23 24 24 24 25 25 25 26 25 25 25 24 24 24 22 21 22 20 19 19 19 19
64 67 67 65 64 67 69 64 56 59 65 65 66 68 69 68 68 71 74 72 67 66 69 68 66 63 60 59 59 59 60 60 56 53 50 45 37 32 31 31 33 34 32 29 29 27 27 27 25 25 24 22 20 19 20 21 21 18 18 18 18 18 19 20 22 24 24 23 24 25 24 24 24 23 23 23 24 25 26 26 26 27 28 28 27 27 26 26 27 25 21 22 22 21 19 20 21
63 69 68 66 65 63 63 63 57 60 66 65 64 64 65 64 63 68 70 68 64 61 62 63 61 59 58 59 60 61 60 56 52 47 41 35 30 28 30 31 33 32 29 27 26 25 25 26 25 24 24 22 21 21 21 20 20 18 17 18 18 18 20 21 24 24 24 22 23 24 23 24 24 23 24 25 25 26 27 27 27 28 29 30 29 30 30 29 30 27 23 25 25 22 20 22 22
62 70 71 70 67 61 56 54 53 61 68 68 65 62 61 60 58 63 65 64 63 61 60 61 60 60 59 60 63 60 56 50 44 37 32 29 28 29 30 32 31 30 28 26 24 24 24 25 24 24 23 23 22 21 20 19 18 17 17 18 18 19 21 22 23 24 23 22 22 21 21 22 23 24 25 25 26 26 27 28 28 29 29 30 30 31 33 31 31 30 26 28 30 26 24 26 25
59 70 73 68 65 64 58 50 49 58 68 69 65 62 61 60 58 59 61 61 61 60 61 60 60 62 61 60 60 57 50 42 37 33 30 28 29 31 32 32 31 29 26 24 23 23 23 23 24 24 23 22 22 19 19 19 17 17 17 17 19 21 22 22 23 23 23 22 22 23 22 23 23 24 25 25 26 27 29 30 30 30 31 32 32 33 35 34 32 30 26 28 30 29 28 30 28
57 66 71 65 60 63 60 52 49 56 67 70 67 66 66 64 61 60 60 62 64 63 61 60 59 61 62 60 55 53 47 37 37 37 31 28 29 32 34 32 30 27 24 22 21 22 23 23 23 23 22 22 20 19 18 18 18 19 17 16 18 22 23 23 23 24 24 24 24 24 24 24 24 26 26 27 29 30 31 32 34 35 33 36 36 35 36 36 33 27 23 28 27 26 29 31 29
56 60 65 62 55 58 58 50 50 57 65 69 70 69 69 67 65 62 60 60 62 62 60 62 62 59 61 60 53 49 45 37 36 36 33 31 30 32 33 32 29 27 23 21 21 21 22 22 21 21 21 21 20 19 18 19 19 20 20 20 21 22 23 23 23 24 25 25 24 25 25 26 27 28 29 30 32 33 34 35 38 40 38 38 37 36 35 33 32 23 20 30 28 23 28 31 30
54 56 61 57 51 61 63 51 51 60 65 70 75 74 69 68 69 65 61 61 60 58 57 60 62 59 58 57 52 48 44 37 34 34 35 34 33 34 34 32 30 26 22 20 20 20 21 20 20 20 20 20 20 19 19 20 20 21 22 24 23 23 23 23 24 26 27 27 27 27 28 29 29 29 31 34 36 38 39 37 38 41 42 40 38 39 36 31 31 24 19 29 32 26 26 30 32
50 51 58 54 47 55 59 53 55 59 62 66 73 78 73 67 68 66 63 64 64 59 56 57 59 60 57 53 52 49 44 40 36 36 39 40 38 39 38 34 30 25 20 19 19 19 20 19 19 19 20 21 21 20 21 23 24 24 25 25 25 26 26 27 27 28 29 30 29 29 30 32 33 34 37 38 39 41 42 39 38 41 44 43 40 39 36 30 31 27 18 22 32 31 27 27 29
49 45 49 52 50 52 53 57 61 61 64 63 65 75 73 63 63 62 60 63 65 62 59 59 58 60 59 52 50 48 44 40 39 40 43 44 44 44 41 36 31 25 21 19 18 18 18 19 20 20 21 22 22 23 24 26 27 28 29 28 29 29 29 30 29 29 30 29 30 31 33 36 39 40 41 42 41 42 45 43 39 41 44 42 37 36 34 30 30 29 22 18 23 26 23 22 20
49 42 44 51 51 52 52 59 66 65 66 63 64 70 66 63 63 57 55 59 62 61 61 60 58 59 61 57 52 49 47 42 41 44 45 45 46 46 44 38 32 26 20 19 18 18 18 19 20 20 21 23 25 27 28 29 29 28 28 29 30 30 29 30 29 29 29 30 31 34 37 40 41 42 42 44 44 42 45 44 38 38 39 38 36 34 30 30 31 30 25 18 16 17 16 16 15
44 38 42 50 51 55 56 60 66 63 60 58 60 63 62 64 62 53 51 54 56 58 58 57 56 56 58 60 60 56 52 46 43 45 45 45 45 45 44 41 34 26 20 19 19 18 19 20 20 22 24 26 29 31 30 30 29 28 28 29 30 29 28 30 29 29 30 32 34 36 41 43 42 43 43 44 43 40 41 41 37 36 35 35 35 32 27 28 33 30 23 18 15 14 14 15 14
42 36 42 52 56 62 63 64 66 59 58 61 58 57 64 67 59 51 51 50 51 53 53 56 56 55 55 59 63 63 59 53 49 48 44 43 44 44 43 41 35 27 21 19 19 19 21 21 23 25 28 31 32 32 31 30 29 28 29 28 28 29 29 29 29 31 32 34 36 40 45 47 45 44 43 43 42 39 38 37 36 35 34 35 33 30 25 26 34 31 21 18 16 15 15 14 13
42 36 42 53 57 61 63 64 64 61 63 64 56 51 61 67 59 54 54 50 51 51 50 53 54 56 57 58 60 63 62 59 56 52 44 43 45 43 43 41 36 28 22 20 20 21 22 24 26 30 32 34 33 31 30 30 30 29 30 29 28 28 29 29 30 32 33 35 39 43 45 48 48 46 43 43 42 40 37 36 37 36 35 34 31 28 23 23 33 31 19 17 16 14 16 15 13
36 34 42 52 56 57 60 62 61 66 65 57 55 50 51 61 60 56 56 55 53 52 51 51 51 53 56 56 56 56 59 61 59 52 43 43 44 43 44 42 37 30 23 21 22 23 24 27 30 33 35 34 33 32 32 32 32 31 31 31 30 30 30 30 31 33 36 39 42 44 45 48 49 46 44 45 42 39 38 39 39 37 36 34 29 27 21 19 27 26 17 15 15 14 16 16 13
33 42 51 55 56 55 60 62 61 66 61 53 58 54 49 58 57 53 56 56 52 51 53 53 50 49 51 53 53 53 56 60 57 51 44 43 42 43 45 42 37 31 24 23 23 25 27 30 34 37 37 37 35 36 35 34 34 34 35 36 35 34 34 35 36 37 40 41 43 44 46 49 48 45 45 45 42 38 39 43 42 38 37 33 27 24 20 18 21 21 16 15 15 13 15 18 17
40 50 59 58 56 55 58 61 61 61 56 57 61 52 52 59 52 50 55 54 52 53 55 56 53 48 48 52 55 57 61 60 56 52 47 45 42 42 43 42 38 32 25 24 24 26 29 33 37 38 39 39 39 39 38 36 37 38 39 41 39 38 39 40 40 40 41 42 44 45 46 47 46 44 45 43 40 39 40 43 42 38 35 30 24 21 18 17 19 19 16 17 19 15 14 20 21
48 53 59 59 57 58 59 59 61 61 58 63 60 49 55 60 51 51 55 53 51 51 48 51 55 52 50 54 57 60 63 60 57 54 50 46 43 41 41 40 38 34 27 25 26 29 32 36 38 39 40 41 41 41 40 38 40 40 41 42 42 42 43 43 43 43 43 44 44 44 45 44 43 44 43 40 39 39 39 40 40 37 33 28 22 20 18 17 17 17 16 20 25 22 19 19 19
47 49 53 56 57 60 61 59 60 62 65 65 58 54 59 57 48 46 49 48 49 50 45 43 50 53 51 56 60 60 63 61 58 57 52 47 44 40 40 39 39 36 29 26 28 31 34 37 38 39 41 43 43 43 42 42 42 42 43 43 43 45 45 44 44 45 45 46 44 43 45 44 43 45 43 40 39 38 38 39 39 36 31 25 20 18 17 17 16 16 15 17 22 25 27 22 17
43 45 49 51 52 53 55 51 46 55 67 64 55 56 56 49 44 44 45 46 46 50 50 44 45 49 49 54 56 56 64 67 62 57 52 47 44 40 38 39 39 36 30 28 30 33 34 36 38 40 43 43 43 44 44 44 44 45 45 44 44 47 47 45 45 46 44 44 44 43 45 44 43 43 41 40 41 40 40 41 38 35 29 22 19 17 17 16 16 16 16 16 18 22 27 25 21
37 45 46 41 40 43 48 48 43 50 63 60 51 52 51 46 48 48 44 46 49 50 50 47 45 45 46 50 51 51 61 69 63 55 51 48 45 41 38 39 39 36 32 30 31 33 34 36 38 41 43 43 43 44 44 45 46 47 46 44 44 47 49 46 44 45 44 43 43 42 43 41 40 40 39 40 40 41 41 40 36 32 26 20 18 16 16 16 16 16 16 17 20 22 24 25 25
35 44 39 34 39 43 43 45 45 47 53 56 52 50 49 48 49 47 43 49 56 52 47 48 48 45 45 46 49 54 59 65 63 54 51 49 46 44 39 38 40 36 33 32 32 32 34 36 38 41 43 43 42 43 44 45 47 49 49 46 45 46 49 47 44 45 46 45 45 45 43 40 39 40 40 40 40 40 40 38 34 29 24 19 17 16 16 16 16 16 16 17 22 26 25 23 25
33 36 31 34 44 50 46 41 44 45 45 53 57 51 47 47 45 44 44 46 50 49 45 48 49 50 51 45 48 55 55 60 65 58 52 49 47 45 43 40 40 37 34 33 32 32 34 36 38 39 41 41 42 43 44 45 47 48 49 47 45 46 48 48 46 46 48 48 49 48 45 42 40 40 40 40 40 40 38 35 31 26 21 19 17 16 16 16 15 15 15 17 21 27 24 21 24
35 32 36 40 40 44 46 39 41 48 45 47 52 49 45 46 40 40 44 42 41 45 46 48 49 52 55 51 49 51 50 55 63 59 52 49 48 46 45 43 41 36 34 33 32 32 34 35 36 38 39 40 42 45 44 45 46 46 46 46 46 49 51 50 49 49 50 50 49 48 47 44 42 40 40 41 41 40 37 33 29 24 20 18 17 16 16 16 16 15 15 16 19 22 21 21 23
40 41 49 51 44 42 44 39 40 48 48 45 46 47 45 45 39 37 43 41 38 43 45 47 48 45 49 53 50 48 49 53 58 57 51 49 48 47 47 46 41 37 34 33 33 34 34 35 36 37 39 39 42 45 45 45 45 44 44 44 47 51 54 54 53 51 51 49 46 45 45 45 44 42 40 41 41 40 36 31 27 22 19 18 16 16 16 15 15 16 17 17 17 18 19 21 22
40 43 47 49 47 43 44 46 43 44 48 44 43 48 47 44 41 38 39 38 37 44 45 45 46 42 44 51 48 48 52 51 54 58 54 49 47 48 49 46 41 37 34 33 34 34 34 35 37 37 37 39 41 45 47 46 45 43 43 45 50 56 58 57 56 55 52 49 47 45 45 46 46 43 41 40 40 38 34 29 25 21 19 18 16 16 15 14 15 17 19 20 19 19 19 20 20